Date,Time,Wetness (Wet Dry or Ice),Wind Speed (m/s),Temperature (C),Humidity (%),Pressure (mb),Radiation (W/m^2)
2020-10-13,22:05:00,DRY,0.50,14.25,44.5,778.00,0.9
2020-10-13,22:10:00,DRY,1.90,14.20,45.0,778.00,1.6
2020-10-13,22:15:00,DRY,4.55,14.45,45.0,778.00,1.2
2020-10-13,22:20:00,DRY,1.53,14.47,44.0,778.00,0.8
2020-10-13,22:25:00,DRY,2.90,14.50,44.0,778.50,1.3
2020-10-13,22:30:00,DRY,3.17,14.43,44.7,778.00,1.8
2020-10-13,22:35:00,DRY,2.85,14.45,44.0,778.50,1.3
2020-10-13,22:40:00,DRY,1.43,14.50,44.0,778.00,1.5
2020-10-13,22:45:00,DRY,1.45,14.45,44.0,778.00,1.2
2020-10-13,22:50:00,DRY,1.37,14.37,45.0,778.00,0.9
2020-10-13,22:55:00,DRY,1.90,14.25,45.0,778.00,0.6
2020-10-13,23:00:00,DRY,2.33,14.33,44.3,778.00,0.3
2020-10-13,23:05:00,DRY,1.15,14.30,44.5,778.00,1.1
2020-10-13,23:10:00,DRY,1.93,14.33,44.3,778.00,1.9
2020-10-13,23:15:00,DRY,1.75,14.10,45.0,778.00,1.1
2020-10-13,23:20:00,DRY,1.33,14.23,44.7,778.00,1.5
2020-10-13,23:25:00,DRY,1.45,14.30,44.0,778.00,1.1
2020-10-13,23:30:00,DRY,1.47,14.20,44.3,778.00,1.2
2020-10-13,23:35:00,DRY,2.00,14.05,43.5,778.00,0.9
2020-10-13,23:40:00,DRY,2.97,14.23,42.3,778.00,1.1
2020-10-13,23:45:00,DRY,2.65,14.45,41.0,778.00,1.2
2020-10-13,23:50:00,DRY,1.93,14.53,40.0,778.00,1.1
2020-10-13,23:55:00,DRY,1.35,14.30,41.0,778.00,0.9
2020-10-14,00:00:00,DRY,1.77,14.20,41.3,778.00,0.7
2020-10-14,00:05:00,DRY,1.10,14.10,41.5,778.00,1.7
2020-10-14,00:10:00,DRY,1.20,14.03,41.0,778.00,0.8
2020-10-14,00:15:00,DRY,1.05,14.00,41.0,778.00,0.4
2020-10-14,00:20:00,DRY,0.77,14.10,40.3,778.00,1.5
2020-10-14,00:25:00,DRY,1.25,14.05,41.0,778.00,0.9
2020-10-14,00:30:00,DRY,0.77,13.90,41.7,778.00,0.7
2020-10-14,00:35:00,DRY,1.00,13.70,43.0,778.00,0.8
2020-10-14,00:40:00,DRY,1.00,13.87,41.7,778.00,1.9
2020-10-14,00:45:00,DRY,1.60,13.85,41.5,778.00,0.7
2020-10-14,00:50:00,DRY,1.27,14.10,41.0,778.00,0.8
2020-10-14,00:55:00,DRY,0.95,14.10,40.0,778.00,1.5
2020-10-14,01:00:00,DRY,1.23,14.00,41.0,778.00,1.2
2020-10-14,01:05:00,DRY,2.40,14.05,40.5,778.00,1.8
2020-10-14,01:10:00,DRY,1.57,13.90,41.0,778.00,1.1
2020-10-14,01:15:00,DRY,0.90,13.50,42.0,778.00,2.2
2020-10-14,01:20:00,DRY,2.33,13.60,41.7,778.00,1.5
2020-10-14,01:25:00,DRY,0.85,13.70,41.0,777.50,1.5
2020-10-14,01:30:00,DRY,0.63,14.00,40.0,778.00,1.4
2020-10-14,01:35:00,DRY,1.65,13.90,40.5,777.50,1.6
2020-10-14,01:40:00,DRY,1.20,13.83,40.7,777.33,0.7
2020-10-14,01:45:00,DRY,0.65,13.75,41.0,777.50,1.4
2020-10-14,01:50:00,DRY,1.33,13.60,41.7,777.33,0.9
2020-10-14,01:55:00,DRY,1.50,13.65,41.0,777.50,0.9
2020-10-14,02:00:00,DRY,1.40,13.80,41.0,777.00,1.2
2020-10-14,02:05:00,DRY,0.50,13.65,41.0,777.00,1.5
2020-10-14,02:10:00,DRY,1.03,13.60,41.0,777.00,1.8
2020-10-14,02:15:00,DRY,0.70,13.70,41.0,777.00,1.5
2020-10-14,02:20:00,DRY,1.00,13.60,41.0,777.00,0.9
2020-10-14,02:25:00,DRY,1.50,13.60,41.0,777.00,1.9
2020-10-14,02:30:00,DRY,0.83,13.60,41.0,777.00,1.3
2020-10-14,02:35:00,DRY,0.95,13.50,41.0,777.00,1.3
2020-10-14,02:40:00,DRY,1.20,13.60,41.0,777.00,1.0
2020-10-14,02:45:00,DRY,0.90,13.50,41.0,777.00,0.8
2020-10-14,02:50:00,DRY,1.10,13.70,40.3,777.00,1.3
2020-10-14,02:55:00,DRY,1.30,13.85,40.0,777.00,2.6
2020-10-14,03:00:00,DRY,0.87,13.60,40.3,777.00,1.3
2020-10-14,03:05:00,DRY,1.20,13.50,41.0,777.00,1.0
2020-10-14,03:10:00,DRY,1.03,13.53,41.0,777.00,1.2
2020-10-14,03:15:00,DRY,1.25,13.55,41.0,777.00,1.6
2020-10-14,03:20:00,DRY,1.33,13.43,41.0,777.00,1.0
2020-10-14,03:25:00,DRY,1.15,13.35,41.5,777.00,1.5
2020-10-14,03:30:00,DRY,1.20,13.63,41.0,777.00,0.7
2020-10-14,03:35:00,DRY,1.25,13.40,41.5,777.00,1.4
2020-10-14,03:40:00,DRY,0.70,13.13,42.3,777.00,1.4
2020-10-14,03:45:00,DRY,1.10,13.20,42.0,777.00,2.1
2020-10-14,03:50:00,DRY,1.80,13.10,42.0,777.00,1.0
2020-10-14,03:55:00,DRY,2.40,13.10,42.0,777.00,0.9
2020-10-14,04:00:00,DRY,1.67,13.17,42.0,777.00,1.6
2020-10-14,04:05:00,DRY,2.00,13.20,42.0,777.00,1.1
2020-10-14,04:10:00,DRY,2.13,13.20,42.0,777.00,0.7
2020-10-14,04:15:00,DRY,0.90,13.15,42.0,777.00,1.1
2020-10-14,04:20:00,DRY,1.77,13.03,43.0,777.00,1.6
2020-10-14,04:25:00,DRY,2.20,13.15,42.5,777.00,1.0
2020-10-14,04:30:00,DRY,1.63,13.27,41.0,777.00,1.2
2020-10-14,04:35:00,DRY,1.90,13.20,41.0,777.00,1.5
2020-10-14,04:40:00,DRY,2.07,13.27,41.3,777.00,2.1
2020-10-14,04:45:00,DRY,2.85,13.25,40.5,777.00,1.4
2020-10-14,04:50:00,DRY,2.03,13.40,40.0,777.00,1.3
2020-10-14,04:55:00,DRY,2.05,13.65,40.0,777.00,1.7
2020-10-14,05:00:00,DRY,2.50,13.57,39.7,777.00,1.4
2020-10-14,05:05:00,DRY,3.10,13.45,40.0,777.00,1.9
2020-10-14,05:10:00,DRY,2.33,13.60,40.0,777.00,1.1
2020-10-14,05:15:00,DRY,3.10,13.75,40.0,777.00,1.1
2020-10-14,05:20:00,DRY,3.17,13.80,40.0,777.00,1.9
2020-10-14,05:25:00,DRY,2.60,13.80,40.0,777.00,0.7
2020-10-14,05:30:00,DRY,2.70,13.77,40.0,777.00,1.7
2020-10-14,05:35:00,DRY,1.85,13.75,40.0,777.00,1.6
2020-10-14,05:40:00,DRY,1.53,13.60,40.7,777.00,0.8
2020-10-14,05:45:00,DRY,3.05,13.65,41.0,777.00,1.3
2020-10-14,05:50:00,DRY,2.53,13.63,41.0,777.00,2.0
2020-10-14,05:55:00,DRY,1.70,13.45,41.0,777.00,2.3
2020-10-14,06:00:00,DRY,2.10,13.40,41.0,777.00,1.1
2020-10-14,06:05:00,DRY,1.25,13.30,41.0,777.00,1.2
2020-10-14,06:10:00,DRY,1.47,13.20,41.0,777.00,1.5
2020-10-14,06:15:00,DRY,0.95,13.05,41.0,777.00,1.4
2020-10-14,06:20:00,DRY,2.03,13.10,41.0,777.00,1.0
2020-10-14,06:25:00,DRY,1.30,13.10,41.0,777.00,1.1
2020-10-14,06:30:00,DRY,1.40,13.03,41.0,777.00,1.0
2020-10-14,06:35:00,DRY,1.30,12.90,41.0,777.00,1.4
2020-10-14,06:40:00,DRY,2.00,12.93,41.0,777.00,1.1
2020-10-14,06:45:00,DRY,1.45,13.00,41.0,777.00,1.1
2020-10-14,06:50:00,DRY,1.43,13.00,41.3,777.00,0.5
2020-10-14,06:55:00,DRY,1.20,13.05,41.0,777.00,2.1
2020-10-14,07:00:00,DRY,0.77,12.93,41.3,777.00,2.2
2020-10-14,07:05:00,DRY,0.80,12.80,42.5,777.00,3.5
2020-10-14,07:10:00,DRY,1.20,12.83,43.0,777.00,5.7
2020-10-14,07:15:00,DRY,1.50,13.10,42.0,777.00,7.1
2020-10-14,07:20:00,DRY,1.33,13.07,42.0,777.00,11.4
2020-10-14,07:25:00,DRY,1.05,13.05,42.0,777.00,16.8
2020-10-14,07:30:00,DRY,1.23,13.00,43.0,777.00,22.4
2020-10-14,07:35:00,DRY,1.65,12.85,43.0,777.00,29.6
2020-10-14,07:40:00,DRY,1.73,12.97,43.0,777.00,42.9
2020-10-14,07:45:00,DRY,2.20,12.90,43.5,777.00,51.3
2020-10-14,07:50:00,DRY,0.93,12.77,44.0,777.33,64.7
2020-10-14,07:55:00,DRY,1.95,12.95,43.5,777.50,74.6
2020-10-14,08:00:00,DRY,1.63,12.87,43.7,778.00,79.8
2020-10-14,08:05:00,DRY,1.75,12.85,44.0,778.00,90.7
2020-10-14,08:10:00,DRY,1.80,13.00,43.0,778.00,143.1
2020-10-14,08:15:00,DRY,1.85,13.15,42.5,778.00,212.9
2020-10-14,08:20:00,DRY,1.33,13.33,41.7,778.00,237.6
2020-10-14,08:25:00,DRY,0.75,13.40,42.0,778.00,260.8
2020-10-14,08:30:00,DRY,1.73,13.50,41.3,778.00,285.5
2020-10-14,08:35:00,DRY,2.25,13.60,41.5,778.00,310.1
2020-10-14,08:40:00,DRY,1.87,13.57,41.7,778.00,331.6
2020-10-14,08:45:00,DRY,1.95,13.65,41.0,778.00,353.5
2020-10-14,08:50:00,DRY,1.43,13.53,41.3,778.00,378.3
2020-10-14,08:55:00,DRY,2.05,13.70,41.5,778.00,407.6
2020-10-14,09:00:00,DRY,1.60,13.93,41.3,778.00,346.7
2020-10-14,09:05:00,DRY,0.75,13.95,40.0,778.00,453.3
2020-10-14,09:10:00,DRY,1.00,14.17,41.0,778.00,478.5
2020-10-14,09:15:00,DRY,1.05,14.50,41.5,778.00,413.4
2020-10-14,09:20:00,DRY,1.17,14.43,39.3,778.00,319.2
2020-10-14,09:25:00,DRY,1.50,14.40,39.0,778.00,246.8
2020-10-14,09:30:00,DRY,1.97,14.27,39.3,778.00,266.7
2020-10-14,09:35:00,DRY,1.55,14.50,38.0,778.00,626.0
2020-10-14,09:40:00,DRY,1.67,14.80,37.3,778.00,486.2
2020-10-14,09:45:00,DRY,1.40,15.05,37.5,778.00,512.6
2020-10-14,09:50:00,DRY,1.30,15.37,36.0,778.00,686.8
2020-10-14,09:55:00,DRY,1.55,15.60,36.5,778.00,483.6
2020-10-14,10:00:00,DRY,1.70,15.43,36.0,778.00,706.9
2020-10-14,10:05:00,DRY,1.50,15.45,36.0,778.00,470.2
2020-10-14,10:10:00,DRY,2.17,15.30,37.0,778.00,763.8
2020-10-14,10:15:00,DRY,2.15,15.60,36.5,778.00,460.6
2020-10-14,10:20:00,DRY,1.13,15.63,36.0,778.00,743.0
2020-10-14,10:25:00,DRY,2.20,15.50,37.5,778.00,530.5
2020-10-14,10:30:00,DRY,1.37,15.57,37.0,778.00,740.0
2020-10-14,10:35:00,DRY,1.60,15.90,37.5,778.00,766.1
2020-10-14,10:40:00,DRY,0.93,15.83,37.0,778.00,772.2
2020-10-14,10:45:00,DRY,1.35,15.90,36.5,778.00,786.5
2020-10-14,10:50:00,DRY,1.03,16.17,36.3,778.00,803.5
2020-10-14,10:55:00,DRY,0.85,16.50,34.5,778.00,813.8
2020-10-14,11:00:00,DRY,0.90,16.33,35.3,778.00,827.4
2020-10-14,11:05:00,DRY,1.35,16.50,36.0,778.00,840.5
2020-10-14,11:10:00,DRY,2.57,16.47,35.3,778.00,851.6
2020-10-14,11:15:00,DRY,2.80,16.25,36.5,778.00,867.4
2020-10-14,11:20:00,DRY,1.40,16.70,35.3,778.00,809.6
2020-10-14,11:25:00,DRY,1.60,16.55,34.5,778.00,886.9
2020-10-14,11:30:00,DRY,1.83,16.70,37.0,778.00,900.7
2020-10-14,11:35:00,DRY,0.85,16.95,36.0,778.00,872.1
2020-10-14,11:40:00,DRY,1.77,16.60,36.0,778.00,943.5
2020-10-14,11:45:00,DRY,2.05,16.90,35.5,778.00,922.5
2020-10-14,11:50:00,DRY,2.10,16.90,35.7,778.00,994.5
2020-10-14,11:55:00,DRY,1.30,17.10,37.0,778.00,872.4
2020-10-14,12:00:00,DRY,1.87,16.60,37.7,778.00,631.1
2020-10-14,12:05:00,DRY,2.35,16.65,37.5,778.00,980.7
2020-10-14,12:10:00,DRY,1.50,17.20,35.7,778.00,1001.3
2020-10-14,12:15:00,DRY,1.20,17.50,36.5,778.00,951.1
2020-10-14,12:20:00,DRY,1.75,17.40,38.5,778.00,955.0
2020-10-14,12:25:00,DRY,2.40,17.15,37.5,778.00,960.8
2020-10-14,12:30:00,DRY,2.47,17.20,37.7,778.00,962.9
2020-10-14,12:35:00,DRY,1.65,17.30,39.5,778.00,965.0
2020-10-14,12:40:00,DRY,2.23,17.17,40.3,778.00,967.9
2020-10-14,12:45:00,DRY,3.45,16.85,42.0,777.50,966.2
2020-10-14,12:50:00,DRY,2.37,17.03,39.0,777.67,965.8
2020-10-14,12:55:00,DRY,1.50,17.15,40.0,777.50,966.6
2020-10-14,13:00:00,DRY,2.30,17.03,42.7,777.67,967.1
2020-10-14,13:05:00,DRY,3.20,16.85,44.5,777.00,968.2
2020-10-14,13:10:00,DRY,3.23,17.20,44.3,777.33,963.9
2020-10-14,13:15:00,DRY,2.50,16.55,47.5,777.50,960.4
2020-10-14,13:20:00,DRY,3.13,16.47,47.7,777.00,958.7
2020-10-14,13:25:00,DRY,2.60,16.80,46.5,777.00,961.2
2020-10-14,13:30:00,DRY,2.80,17.00,47.0,777.00,956.0
2020-10-14,13:35:00,DRY,3.00,17.10,42.0,777.00,948.4
2020-10-14,13:40:00,DRY,1.57,16.67,45.0,777.00,943.5
2020-10-14,13:45:00,DRY,2.25,16.60,43.5,777.00,939.0
2020-10-14,13:50:00,DRY,2.17,16.67,48.0,777.00,937.0
2020-10-14,13:55:00,DRY,3.00,16.95,43.5,777.00,932.4
2020-10-14,14:00:00,DRY,2.70,16.67,45.3,777.00,925.6
2020-10-14,14:05:00,DRY,2.10,16.60,44.0,777.00,918.3
2020-10-14,14:10:00,DRY,2.23,16.33,47.0,777.00,911.2
2020-10-14,14:15:00,DRY,2.65,16.40,49.5,777.00,901.5
2020-10-14,14:20:00,DRY,2.13,16.37,47.7,777.00,896.7
2020-10-14,14:25:00,DRY,1.55,16.55,47.5,777.00,886.9
2020-10-14,14:30:00,DRY,1.70,16.47,44.3,777.00,870.8
2020-10-14,14:35:00,DRY,1.90,16.35,48.0,777.00,865.8
2020-10-14,14:40:00,DRY,1.73,16.87,45.3,777.00,849.1
2020-10-14,14:45:00,DRY,3.20,16.30,51.0,777.00,836.5
2020-10-14,14:50:00,DRY,1.57,16.30,49.7,777.00,829.7
2020-10-14,14:55:00,DRY,2.20,16.30,49.0,777.00,811.8
2020-10-14,15:00:00,DRY,2.70,16.40,49.3,777.00,801.3
2020-10-14,15:05:00,DRY,2.80,16.30,49.5,777.00,787.7
2020-10-14,15:10:00,DRY,2.20,16.33,49.0,777.00,774.4
2020-10-14,15:15:00,DRY,2.05,16.60,50.0,777.00,761.0
2020-10-14,15:20:00,DRY,1.57,16.10,54.7,777.00,745.4
2020-10-14,15:25:00,DRY,1.35,15.90,54.0,777.00,734.0
2020-10-14,15:30:00,DRY,2.10,15.80,54.0,777.00,718.5
2020-10-14,15:35:00,DRY,1.05,16.35,52.0,777.00,701.4
2020-10-14,15:40:00,DRY,0.60,16.30,52.0,777.00,684.9
2020-10-14,15:45:00,DRY,0.45,16.50,51.5,777.00,670.6
2020-10-14,15:50:00,DRY,1.30,16.03,54.0,777.00,651.1
2020-10-14,15:55:00,DRY,1.10,16.10,54.5,777.00,635.2
2020-10-14,16:00:00,DRY,1.57,15.97,56.0,777.00,619.1
2020-10-14,16:05:00,DRY,2.65,15.10,58.5,777.00,601.9
2020-10-14,16:10:00,DRY,2.07,14.93,57.7,777.00,583.5
2020-10-14,16:15:00,DRY,1.80,14.95,56.5,777.00,568.3
2020-10-14,16:20:00,DRY,1.90,14.77,57.3,777.00,553.1
2020-10-14,16:25:00,DRY,1.15,14.95,56.0,777.00,535.3
2020-10-14,16:30:00,DRY,1.47,15.50,53.3,777.00,512.3
2020-10-14,16:35:00,DRY,1.65,15.60,54.0,777.00,489.3
2020-10-14,16:40:00,DRY,1.13,15.60,52.7,777.00,471.3
2020-10-14,16:45:00,DRY,1.80,15.05,53.5,777.00,456.5
2020-10-14,16:50:00,DRY,1.70,15.00,55.0,777.00,433.5
2020-10-14,16:55:00,DRY,1.80,14.75,54.0,777.00,409.3
2020-10-14,17:00:00,DRY,1.20,15.00,53.7,777.00,385.3
2020-10-14,17:05:00,DRY,1.40,14.80,53.0,777.00,362.2
2020-10-14,17:10:00,DRY,2.03,14.70,52.3,777.00,338.1
2020-10-14,17:15:00,DRY,1.10,14.65,53.0,777.00,311.1
2020-10-14,17:20:00,DRY,1.40,14.73,52.7,777.00,290.9
2020-10-14,17:25:00,DRY,0.65,14.65,53.0,777.00,284.2
2020-10-14,17:30:00,DRY,1.50,14.83,51.7,777.00,270.0
2020-10-14,17:35:00,DRY,1.60,14.60,49.0,777.00,232.2
2020-10-14,17:40:00,DRY,1.70,14.47,49.3,777.00,207.1
2020-10-14,17:45:00,DRY,1.10,14.50,49.5,777.00,184.6
2020-10-14,17:50:00,DRY,1.47,14.27,51.0,777.00,164.7
2020-10-14,17:55:00,DRY,0.65,14.25,51.5,777.00,143.5
2020-10-14,18:00:00,DRY,1.57,14.03,52.7,777.00,123.6
2020-10-14,18:05:00,DRY,1.55,13.90,53.0,777.00,102.8
2020-10-14,18:10:00,DRY,0.90,13.83,53.3,777.00,80.9
2020-10-14,18:15:00,DRY,0.40,13.80,52.5,777.00,61.4
2020-10-14,18:20:00,DRY,2.07,13.60,52.3,777.00,42.6
2020-10-14,18:25:00,DRY,1.00,13.45,52.0,777.00,30.9
2020-10-14,18:30:00,DRY,1.57,13.40,52.7,777.00,22.1
2020-10-14,18:35:00,DRY,2.10,13.35,53.5,777.00,13.3
2020-10-14,18:40:00,DRY,3.03,13.33,52.0,777.00,8.3
2020-10-14,18:45:00,DRY,3.10,13.35,53.0,777.00,4.9
2020-10-14,18:50:00,DRY,0.77,13.20,51.3,777.00,3.5
2020-10-14,18:55:00,DRY,1.35,13.10,52.5,777.00,2.5
2020-10-14,19:00:00,DRY,1.23,13.00,51.3,777.00,1.8
2020-10-14,19:05:00,DRY,1.35,13.15,51.0,777.00,1.9
2020-10-14,19:10:00,DRY,2.43,13.20,50.3,777.00,1.3
2020-10-14,19:15:00,DRY,2.40,13.20,49.0,777.00,1.6
2020-10-14,19:20:00,DRY,2.63,13.20,48.3,777.00,1.3
2020-10-14,19:25:00,DRY,1.00,13.10,48.0,777.00,1.6
2020-10-14,19:30:00,DRY,1.20,13.00,48.0,777.00,0.6
2020-10-14,19:35:00,DRY,1.55,13.00,48.5,777.00,1.0
2020-10-14,19:40:00,DRY,1.63,12.97,47.7,777.00,0.4
2020-10-14,19:45:00,DRY,2.35,13.00,47.0,777.00,1.6
2020-10-14,19:50:00,DRY,1.80,13.00,48.3,777.00,1.7
2020-10-14,19:55:00,DRY,1.75,12.95,47.5,777.00,2.2
2020-10-14,20:00:00,DRY,1.87,12.80,49.3,777.00,1.0
2020-10-14,20:05:00,DRY,2.65,12.80,48.5,777.00,0.8
2020-10-14,20:10:00,DRY,2.63,12.87,48.3,777.00,1.1
2020-10-14,20:15:00,DRY,1.10,12.75,47.0,777.00,1.1
2020-10-14,20:20:00,DRY,1.10,12.73,47.3,777.00,1.7
2020-10-14,20:25:00,DRY,2.60,12.60,50.5,777.00,1.1
2020-10-14,20:30:00,DRY,1.30,12.60,47.0,777.00,1.0
2020-10-14,20:35:00,DRY,1.95,12.50,47.0,777.00,2.0
2020-10-14,20:40:00,DRY,0.77,12.47,47.7,777.00,1.6
2020-10-14,20:45:00,DRY,1.60,12.40,45.5,777.00,1.1
2020-10-14,20:50:00,DRY,2.13,12.40,47.3,777.00,1.2
2020-10-14,20:55:00,DRY,0.65,12.30,47.0,777.00,1.2
2020-10-14,21:00:00,DRY,1.07,12.17,48.3,777.00,1.5
2020-10-14,21:05:00,DRY,1.80,12.15,46.0,777.00,1.1
2020-10-14,21:10:00,DRY,1.20,12.27,46.7,777.00,0.6
2020-10-14,21:15:00,DRY,3.55,12.25,47.5,777.00,1.0
2020-10-14,21:20:00,DRY,2.87,12.37,47.7,777.00,1.3
2020-10-14,21:25:00,DRY,4.60,12.35,47.0,777.00,0.9
2020-10-14,21:30:00,DRY,4.50,12.37,47.0,777.00,1.0
2020-10-14,21:35:00,DRY,3.00,12.35,48.0,777.00,1.0
2020-10-14,21:40:00,DRY,3.27,12.30,49.3,777.00,0.8
2020-10-14,21:45:00,DRY,3.35,12.40,48.5,777.00,1.2
2020-10-14,21:50:00,DRY,4.00,12.40,49.7,777.00,1.3
2020-10-14,21:55:00,DRY,3.35,12.35,49.5,777.00,1.0
2020-10-14,22:00:00,DRY,2.17,12.27,50.3,777.00,1.0
2020-10-14,22:05:00,DRY,1.60,12.20,51.0,777.00,0.9
2020-10-14,22:10:00,DRY,1.93,12.20,52.0,777.00,1.5
2020-10-14,22:15:00,DRY,1.40,12.15,52.0,777.00,2.0
2020-10-14,22:20:00,DRY,1.57,12.10,50.7,777.00,2.2
2020-10-14,22:25:00,DRY,3.00,12.15,49.0,777.00,0.6
2020-10-14,22:30:00,DRY,2.00,12.07,50.7,777.00,1.7
2020-10-14,22:35:00,DRY,2.25,12.10,50.5,777.00,1.7
2020-10-14,22:40:00,DRY,2.10,12.10,50.0,777.00,2.1
2020-10-14,22:45:00,DRY,2.40,12.05,49.5,777.00,0.5
2020-10-14,22:50:00,DRY,1.67,12.00,49.3,777.00,0.9
2020-10-14,22:55:00,DRY,3.30,12.00,49.0,777.00,1.3
2020-10-14,23:00:00,DRY,2.57,12.00,48.0,777.00,1.1
2020-10-14,23:05:00,DRY,2.55,12.10,46.0,777.00,1.9
2020-10-14,23:10:00,DRY,4.07,12.20,44.7,777.00,1.0
2020-10-14,23:15:00,DRY,2.70,12.20,43.0,777.00,0.8
2020-10-14,23:20:00,DRY,4.03,12.30,42.3,777.00,0.8
2020-10-14,23:25:00,DRY,3.35,12.25,42.5,777.00,1.7
2020-10-14,23:30:00,DRY,6.07,12.50,41.0,777.00,1.3
2020-10-14,23:35:00,DRY,6.45,12.45,41.0,777.00,1.3
2020-10-14,23:40:00,DRY,4.63,12.43,41.3,777.00,0.6
2020-10-14,23:45:00,DRY,5.45,12.40,41.5,777.00,1.1
2020-10-14,23:50:00,DRY,5.03,12.47,41.0,777.00,0.9
2020-10-14,23:55:00,DRY,6.45,12.50,41.5,777.00,1.1
2020-10-15,00:00:00,DRY,6.10,12.60,41.0,777.00,1.2
2020-10-15,00:05:00,DRY,6.05,12.45,41.0,777.00,1.4
2020-10-15,00:10:00,DRY,4.27,12.50,41.0,777.00,1.2
2020-10-15,00:15:00,DRY,5.60,12.50,41.0,777.00,1.1
2020-10-15,00:20:00,DRY,4.47,12.60,40.0,777.00,1.1
2020-10-15,00:25:00,DRY,7.40,12.50,40.5,777.00,1.4
2020-10-15,00:30:00,DRY,4.47,12.57,40.0,777.00,1.5
2020-10-15,00:35:00,DRY,3.90,12.45,40.0,777.00,1.8
2020-10-15,00:40:00,DRY,5.20,12.50,39.3,777.00,1.0
2020-10-15,00:45:00,DRY,4.75,12.35,40.0,777.00,1.2
2020-10-15,00:50:00,DRY,3.53,12.37,39.3,777.00,0.9
2020-10-15,00:55:00,DRY,4.05,12.45,39.5,777.00,0.9
2020-10-15,01:00:00,DRY,5.47,12.53,39.0,777.00,1.1
2020-10-15,01:05:00,DRY,6.00,12.50,39.0,777.00,1.1
2020-10-15,01:10:00,DRY,5.00,12.50,39.0,777.00,1.0
2020-10-15,01:15:00,DRY,2.70,12.45,39.0,777.00,1.7
2020-10-15,01:20:00,DRY,3.47,12.47,39.0,777.00,1.2
2020-10-15,01:25:00,DRY,4.15,12.40,39.5,777.00,0.9
2020-10-15,01:30:00,DRY,3.57,12.50,39.0,777.00,1.2
2020-10-15,01:35:00,DRY,2.45,12.40,39.0,777.00,1.5
2020-10-15,01:40:00,DRY,3.07,12.40,39.0,777.00,1.0
2020-10-15,01:45:00,DRY,3.20,12.30,39.5,776.00,1.2
2020-10-15,01:50:00,DRY,3.70,12.30,39.3,776.33,0.6
2020-10-15,01:55:00,DRY,6.05,12.30,39.5,776.00,1.3
2020-10-15,02:00:00,DRY,4.23,12.30,39.0,776.00,1.4
2020-10-15,02:05:00,DRY,4.90,12.30,39.0,776.00,1.5
2020-10-15,02:10:00,DRY,4.90,12.30,39.7,776.00,1.3
2020-10-15,02:15:00,DRY,4.10,12.30,40.0,776.00,0.9
2020-10-15,02:20:00,DRY,5.07,12.30,40.0,776.00,1.2
2020-10-15,02:25:00,DRY,6.65,12.30,40.0,776.00,1.0
2020-10-15,02:30:00,DRY,3.97,12.27,40.0,776.00,1.0
2020-10-15,02:35:00,DRY,3.95,12.20,40.0,776.00,1.2
2020-10-15,02:40:00,DRY,4.67,12.17,41.0,776.00,1.2
2020-10-15,02:45:00,DRY,4.70,12.10,41.0,776.00,1.1
2020-10-15,02:50:00,DRY,5.43,12.07,41.7,776.00,1.2
2020-10-15,02:55:00,DRY,4.10,12.05,41.5,776.00,1.3
2020-10-15,03:00:00,DRY,3.57,11.93,42.0,776.00,0.5
2020-10-15,03:05:00,DRY,1.50,11.85,43.0,776.00,1.0
2020-10-15,03:10:00,DRY,2.07,11.73,43.0,776.00,1.7
2020-10-15,03:15:00,DRY,2.05,11.70,42.0,776.00,1.4
2020-10-15,03:20:00,DRY,1.17,11.50,40.3,776.00,1.9
2020-10-15,03:25:00,DRY,1.75,11.25,42.0,776.00,0.9
2020-10-15,03:30:00,DRY,2.53,11.00,40.7,776.00,1.5
2020-10-15,03:35:00,DRY,1.35,10.95,40.5,776.00,0.6
2020-10-15,03:40:00,DRY,1.47,10.70,38.3,776.00,0.5
2020-10-15,03:45:00,DRY,3.00,10.35,32.5,776.00,1.5
2020-10-15,03:50:00,DRY,2.37,10.80,37.3,776.00,0.7
2020-10-15,03:55:00,DRY,3.85,10.90,38.0,776.00,2.3
2020-10-15,04:00:00,DRY,3.00,10.87,39.0,776.00,1.2
2020-10-15,04:05:00,DRY,2.00,10.90,39.0,776.00,1.0
2020-10-15,04:10:00,DRY,2.27,10.67,37.7,776.00,1.7
2020-10-15,04:15:00,WET,1.60,10.60,37.5,776.00,0.5
2020-10-15,04:20:00,DRY,0.80,10.40,40.0,776.00,1.5
2020-10-15,04:25:00,WET,4.50,10.35,44.0,776.00,1.4
2020-10-15,04:30:00,DRY,2.00,10.23,45.3,776.00,1.9
2020-10-15,04:35:00,DRY,2.90,10.35,45.0,776.00,0.8
2020-10-15,04:40:00,DRY,2.80,10.43,45.0,776.00,0.8
2020-10-15,04:45:00,DRY,1.00,10.40,46.5,776.00,0.9
2020-10-15,04:50:00,WET,3.27,10.20,51.0,776.00,1.7
2020-10-15,04:55:00,DRY,2.00,10.05,51.5,776.00,1.0
2020-10-15,05:00:00,DRY,3.17,9.83,53.7,776.00,1.1
2020-10-15,05:05:00,DRY,3.15,10.00,54.0,776.00,0.5
2020-10-15,05:10:00,DRY,2.60,10.27,52.3,776.00,0.8
2020-10-15,05:15:00,DRY,3.65,10.40,50.0,776.00,1.1
2020-10-15,05:20:00,DRY,5.80,10.33,50.3,776.00,1.5
2020-10-15,05:25:00,DRY,4.30,10.40,51.5,776.00,1.0
2020-10-15,05:30:00,DRY,5.07,10.30,51.3,776.00,1.2
2020-10-15,05:35:00,WET,5.25,10.45,56.0,776.00,1.1
2020-10-15,05:40:00,DRY,5.23,10.93,65.0,776.00,1.4
2020-10-15,05:45:00,WET,6.00,10.65,61.5,776.00,1.6
2020-10-15,05:50:00,WET,5.90,10.40,70.3,776.00,1.4
2020-10-15,05:55:00,WET,5.80,10.50,74.5,776.00,1.1
2020-10-15,06:00:00,WET,4.83,10.53,69.7,776.00,1.4
2020-10-15,06:05:00,DRY,5.45,10.60,66.5,776.00,1.2
2020-10-15,06:10:00,DRY,5.30,10.67,69.7,776.00,1.3
2020-10-15,06:15:00,DRY,5.45,10.90,77.0,776.00,1.4
2020-10-15,06:20:00,DRY,4.50,11.00,76.3,776.00,1.0
2020-10-15,06:25:00,DRY,3.90,10.85,72.5,776.00,0.9
2020-10-15,06:30:00,DRY,3.00,10.83,71.3,776.00,1.4
2020-10-15,06:35:00,DRY,2.55,10.65,70.5,776.00,1.6
2020-10-15,06:40:00,DRY,4.30,10.80,66.0,776.00,0.6
2020-10-15,06:45:00,DRY,4.65,10.70,72.5,776.00,1.0
2020-10-15,06:50:00,DRY,3.60,10.73,74.0,776.00,1.1
2020-10-15,06:55:00,DRY,4.00,10.85,80.0,776.00,1.5
2020-10-15,07:00:00,DRY,3.57,10.97,77.7,776.00,2.5
2020-10-15,07:05:00,DRY,4.15,10.95,71.5,776.00,3.5
2020-10-15,07:10:00,DRY,3.57,10.90,74.3,776.00,5.3
2020-10-15,07:15:00,DRY,3.30,10.90,77.0,776.00,11.2
2020-10-15,07:20:00,DRY,3.30,10.97,76.7,776.00,12.3
2020-10-15,07:25:00,DRY,3.10,10.95,82.0,776.50,26.8
2020-10-15,07:30:00,DRY,3.63,11.00,80.3,776.33,30.2
2020-10-15,07:35:00,DRY,2.70,10.95,85.5,777.00,34.2
2020-10-15,07:40:00,DRY,5.30,10.87,88.7,776.33,37.6
2020-10-15,07:45:00,DRY,3.80,10.80,92.0,776.50,46.2
2020-10-15,07:50:00,DRY,2.67,10.80,89.7,777.00,61.0
2020-10-15,07:55:00,DRY,3.30,10.85,91.0,777.00,57.1
2020-10-15,08:00:00,DRY,2.07,10.83,91.3,777.00,96.1
2020-10-15,08:05:00,DRY,3.40,10.90,91.0,777.00,115.8
2020-10-15,08:10:00,DRY,2.83,10.97,87.3,777.00,128.8
2020-10-15,08:15:00,DRY,2.70,11.00,88.0,777.00,113.8
2020-10-15,08:20:00,DRY,2.47,11.00,88.3,777.00,196.1
2020-10-15,08:25:00,DRY,2.45,11.10,85.5,777.00,275.5
2020-10-15,08:30:00,DRY,2.47,11.03,90.3,777.00,233.1
2020-10-15,08:35:00,DRY,2.45,11.00,90.5,777.00,169.9
2020-10-15,08:40:00,DRY,2.30,11.00,88.7,777.00,216.8
2020-10-15,08:45:00,DRY,3.45,11.15,90.0,777.00,270.6
2020-10-15,08:50:00,DRY,2.20,11.27,90.0,777.00,399.6
2020-10-15,08:55:00,DRY,1.40,11.55,85.0,777.00,415.4
2020-10-15,09:00:00,DRY,1.43,11.80,83.7,777.00,438.5
2020-10-15,09:05:00,DRY,1.70,11.95,79.5,777.00,457.6
2020-10-15,09:10:00,DRY,3.17,12.00,81.0,777.00,478.6
2020-10-15,09:15:00,DRY,1.55,12.20,80.0,777.00,498.0
2020-10-15,09:20:00,DRY,2.20,12.20,78.3,777.00,520.1
2020-10-15,09:25:00,DRY,2.20,12.30,79.0,777.00,538.4
2020-10-15,09:30:00,DRY,2.20,12.23,81.0,777.00,563.3
2020-10-15,09:35:00,DRY,1.55,12.45,79.0,777.00,583.0
2020-10-15,09:40:00,DRY,2.00,12.43,79.3,777.00,612.4
2020-10-15,09:45:00,DRY,1.30,12.55,78.5,777.00,649.8
2020-10-15,09:50:00,DRY,1.23,12.77,77.0,777.00,655.8
2020-10-15,09:55:00,DRY,2.25,12.90,76.0,777.00,672.4
2020-10-15,10:00:00,DRY,1.33,12.87,76.0,777.00,697.6
2020-10-15,10:05:00,DRY,2.05,13.25,73.5,777.00,771.7
2020-10-15,10:10:00,DRY,1.07,13.37,72.3,777.00,726.5
2020-10-15,10:15:00,DRY,0.80,13.45,72.5,777.00,645.0
2020-10-15,10:20:00,DRY,2.17,13.43,68.7,777.00,576.9
2020-10-15,10:25:00,DRY,1.60,13.40,66.0,777.00,631.6
2020-10-15,10:30:00,DRY,0.47,13.60,61.0,777.00,777.7
2020-10-15,10:35:00,DRY,1.00,13.60,64.5,777.00,779.5
2020-10-15,10:40:00,DRY,1.77,13.37,63.3,777.00,791.4
2020-10-15,10:45:00,DRY,0.95,13.45,62.5,777.00,805.8
2020-10-15,10:50:00,DRY,1.50,13.80,64.3,777.00,817.8
2020-10-15,10:55:00,DRY,0.90,13.65,63.5,777.00,831.1
2020-10-15,11:00:00,DRY,1.10,13.93,53.7,777.00,843.9
2020-10-15,11:05:00,DRY,2.20,13.35,51.5,777.00,854.6
2020-10-15,11:10:00,DRY,1.83,13.90,53.7,777.00,866.6
2020-10-15,11:15:00,DRY,1.50,13.80,63.5,777.00,878.2
2020-10-15,11:20:00,DRY,1.93,13.57,66.0,777.00,885.1
2020-10-15,11:25:00,DRY,2.15,13.45,57.5,777.00,893.2
2020-10-15,11:30:00,DRY,1.50,13.70,51.3,777.00,904.0
2020-10-15,11:35:00,DRY,1.95,13.50,65.0,777.00,912.7
2020-10-15,11:40:00,DRY,1.63,13.50,65.3,777.00,943.8
2020-10-15,11:45:00,DRY,1.45,13.60,66.5,777.00,981.6
2020-10-15,11:50:00,DRY,2.07,13.57,69.0,777.00,955.0
2020-10-15,11:55:00,DRY,2.30,13.35,64.5,777.00,942.5
2020-10-15,12:00:00,DRY,1.73,13.33,60.3,777.00,900.3
2020-10-15,12:05:00,DRY,0.85,13.65,55.5,777.00,1025.1
2020-10-15,12:10:00,DRY,1.63,13.97,54.3,777.00,1060.1
2020-10-15,12:15:00,DRY,3.45,13.65,57.0,776.50,683.3
2020-10-15,12:20:00,DRY,1.00,14.07,54.3,776.67,906.6
2020-10-15,12:25:00,DRY,1.70,13.30,54.0,777.00,314.1